{"data":{"norad_id":60119,"epoch":"2026-05-24T21:38:37.533984Z","epoch_age_seconds":83422,"freshness":"FRESH","line1":"1 60119U 24118G   26144.90182331  .00002561  00000+0  25996-4 0  9995","line2":"2 60119  53.1598 205.5362 0001210  76.7535 283.3618 15.69703627109962","mean_motion":15.69703627,"eccentricity":0.000121,"inclination_deg":53.1598,"raan_deg":205.5362,"arg_perigee_deg":76.7535,"mean_anomaly_deg":283.3618,"bstar":2.5996e-5,"rev_number":10996,"period_min":91.737062667818,"perigee_km":358.92970384753,"apogee_km":360.56027128852,"semimajor_km":6737.881987568,"source":"CELESTRAK","updated_at":"2026-05-25T13:38:19.166554Z"}}